Year,Month,Day,Hour,Minute,Value (Times are PST for windgust in km/hr)
2015,01,18,00,19,3.20
2015,01,18,00,20,3.20
2015,01,18,00,21,1.60
2015,01,18,00,24,1.60
2015,01,18,00,29,1.60
2015,01,18,00,30,1.60
2015,01,18,00,35,3.20
2015,01,18,00,36,6.40
2015,01,18,00,37,6.40
2015,01,18,00,38,3.20
2015,01,18,00,42,3.20
2015,01,18,00,43,3.20
2015,01,18,00,44,1.60
2015,01,18,00,48,1.60
2015,01,18,00,49,1.60
2015,01,18,00,50,3.20
2015,01,18,00,51,4.80
2015,01,18,00,52,4.80
2015,01,18,00,53,6.40
2015,01,18,00,54,6.40
2015,01,18,00,55,1.60
2015,01,18,00,56,3.20
2015,01,18,00,57,3.20
2015,01,18,00,58,4.80
2015,01,18,00,59,3.20
2015,01,18,01,00,3.20
2015,01,18,01,03,1.60
2015,01,18,01,04,3.20
2015,01,18,01,07,1.60
2015,01,18,01,08,1.60
2015,01,18,01,09,6.40
2015,01,18,01,10,4.80
2015,01,18,01,12,3.20
2015,01,18,01,13,8.10
2015,01,18,01,14,4.80
2015,01,18,01,17,1.60
2015,01,18,01,18,3.20
2015,01,18,01,24,1.60
2015,01,18,01,27,1.60
2015,01,18,01,28,3.20
2015,01,18,01,29,1.60
2015,01,18,01,30,3.20
2015,01,18,01,32,6.40
2015,01,18,01,33,4.80
2015,01,18,01,34,6.40
2015,01,18,01,35,19.30
2015,01,18,01,36,24.20
2015,01,18,01,37,14.50
2015,01,18,01,38,11.30
2015,01,18,01,39,12.90
2015,01,18,01,40,11.30
2015,01,18,01,41,11.30
2015,01,18,01,42,6.40
2015,01,18,01,43,4.80
2015,01,18,01,44,40.20
2015,01,18,01,45,20.90
2015,01,18,01,46,37.00
2015,01,18,01,47,30.60
2015,01,18,01,48,20.90
2015,01,18,01,49,20.90
2015,01,18,01,50,19.30
2015,01,18,01,51,17.70
2015,01,18,01,52,27.40
2015,01,18,01,53,25.70
2015,01,18,01,54,41.80
2015,01,18,01,55,57.90
2015,01,18,01,56,32.20
2015,01,18,01,57,25.70
2015,01,18,01,58,24.20
2015,01,18,01,59,29.00
2015,01,18,02,00,32.20
2015,01,18,02,01,19.30
2015,01,18,02,02,24.20
2015,01,18,02,03,20.90
2015,01,18,02,04,25.70
2015,01,18,02,05,25.70
2015,01,18,02,06,20.90
2015,01,18,02,07,19.30
2015,01,18,02,08,25.70
2015,01,18,02,09,25.70
2015,01,18,02,10,19.30
2015,01,18,02,11,9.60
2015,01,18,02,12,16.10
2015,01,18,02,13,22.50
2015,01,18,02,14,19.30
2015,01,18,02,15,22.50
2015,01,18,02,16,25.70
2015,01,18,02,17,22.50
2015,01,18,02,18,24.20
2015,01,18,02,19,32.20
2015,01,18,02,20,35.40
2015,01,18,02,21,17.70
2015,01,18,02,22,16.10
2015,01,18,02,23,35.40
2015,01,18,02,24,45.10
2015,01,18,02,25,22.50
2015,01,18,02,26,35.40
2015,01,18,02,27,29.00
2015,01,18,02,28,22.50
2015,01,18,02,29,22.50
2015,01,18,02,30,19.30
2015,01,18,02,31,11.30
2015,01,18,02,32,20.90
2015,01,18,02,33,16.10
2015,01,18,02,34,22.50
2015,01,18,02,35,27.40
2015,01,18,02,36,27.40
2015,01,18,02,37,16.10
2015,01,18,02,38,11.30
2015,01,18,02,39,14.50
2015,01,18,02,40,27.40
2015,01,18,02,41,27.40
2015,01,18,02,42,24.20
2015,01,18,02,43,37.00
2015,01,18,02,44,29.00
2015,01,18,02,45,19.30
2015,01,18,02,46,32.20
2015,01,18,02,47,22.50
2015,01,18,02,48,11.30
2015,01,18,02,49,4.80
2015,01,18,02,50,14.50
2015,01,18,02,51,24.20
2015,01,18,02,52,19.30
2015,01,18,02,53,27.40
2015,01,18,02,54,20.90
2015,01,18,02,55,20.90
2015,01,18,02,56,11.30
2015,01,18,02,57,8.10
2015,01,18,02,58,27.40
2015,01,18,02,59,22.50
2015,01,18,03,00,25.70
2015,01,18,03,01,32.20
2015,01,18,03,02,24.20
2015,01,18,03,03,24.20
2015,01,18,03,04,25.70
2015,01,18,03,05,19.30
2015,01,18,03,06,8.10
2015,01,18,03,07,20.90
2015,01,18,03,08,19.30
2015,01,18,03,09,14.50
2015,01,18,03,10,14.50
2015,01,18,03,11,8.10
2015,01,18,03,12,19.30
2015,01,18,03,13,14.50
2015,01,18,03,14,14.50
2015,01,18,03,15,14.50
2015,01,18,03,16,14.50
2015,01,18,03,17,17.70
2015,01,18,03,18,25.70
2015,01,18,03,19,27.40
2015,01,18,03,20,30.60
2015,01,18,03,21,27.40
2015,01,18,03,22,22.50
2015,01,18,03,23,25.70
2015,01,18,03,24,29.00
2015,01,18,03,25,27.40
2015,01,18,03,26,20.90
2015,01,18,03,27,22.50
2015,01,18,03,28,20.90
2015,01,18,03,29,19.30
2015,01,18,03,30,20.90
2015,01,18,03,31,19.30
2015,01,18,03,32,16.10
2015,01,18,03,33,14.50
2015,01,18,03,34,16.10
2015,01,18,03,35,20.90
2015,01,18,03,36,11.30
2015,01,18,03,37,14.50
2015,01,18,03,38,25.70
2015,01,18,03,39,22.50
2015,01,18,03,40,11.30
2015,01,18,03,41,8.10
2015,01,18,03,42,11.30
2015,01,18,03,43,19.30
2015,01,18,03,44,16.10
2015,01,18,03,45,27.40
2015,01,18,03,46,11.30
2015,01,18,03,47,8.10
2015,01,18,03,48,19.30
2015,01,18,03,49,20.90
2015,01,18,03,50,32.20
2015,01,18,03,51,22.50
2015,01,18,03,52,29.00
2015,01,18,03,53,32.20
2015,01,18,03,54,35.40
2015,01,18,03,55,33.80
2015,01,18,03,56,25.70
2015,01,18,03,57,40.20
2015,01,18,03,58,29.00
2015,01,18,03,59,27.40
2015,01,18,04,00,48.30
2015,01,18,04,01,32.20
2015,01,18,04,02,25.70
2015,01,18,04,03,14.50
2015,01,18,04,04,27.40
2015,01,18,04,05,30.60
2015,01,18,04,06,20.90
2015,01,18,04,07,40.20
2015,01,18,04,08,32.20
2015,01,18,04,09,19.30
2015,01,18,04,10,17.70
2015,01,18,04,11,24.20
2015,01,18,04,12,16.10
2015,01,18,04,13,33.80
2015,01,18,04,14,32.20
2015,01,18,04,15,24.20
2015,01,18,04,16,22.50
2015,01,18,04,17,22.50
2015,01,18,04,18,27.40
2015,01,18,04,19,25.70
2015,01,18,04,20,22.50
2015,01,18,04,21,17.70
2015,01,18,04,22,27.40
2015,01,18,04,23,17.70
2015,01,18,04,24,25.70
2015,01,18,04,25,30.60
2015,01,18,04,26,22.50
2015,01,18,04,27,17.70
2015,01,18,04,28,20.90
2015,01,18,04,29,20.90
2015,01,18,04,30,27.40
2015,01,18,04,31,11.30
2015,01,18,04,32,20.90
2015,01,18,04,33,20.90
2015,01,18,04,34,22.50
2015,01,18,04,35,11.30
2015,01,18,04,36,20.90
2015,01,18,04,37,24.20
2015,01,18,04,38,30.60
2015,01,18,04,39,33.80
2015,01,18,04,40,24.20
2015,01,18,04,41,17.70
2015,01,18,04,42,22.50
2015,01,18,04,43,37.00
2015,01,18,04,44,32.20
2015,01,18,04,45,19.30
2015,01,18,04,46,29.00
2015,01,18,04,47,19.30
2015,01,18,04,48,19.30
2015,01,18,04,49,22.50
2015,01,18,04,50,25.70
2015,01,18,04,51,22.50
2015,01,18,04,52,17.70
2015,01,18,04,53,14.50
2015,01,18,04,54,11.30
2015,01,18,04,55,8.10
2015,01,18,04,56,12.90
2015,01,18,04,57,17.70
2015,01,18,04,58,22.50
2015,01,18,04,59,8.10
2015,01,18,05,00,14.50
2015,01,18,05,01,19.30
2015,01,18,05,02,20.90
2015,01,18,05,03,19.30
2015,01,18,05,04,12.90
2015,01,18,05,05,12.90
2015,01,18,05,06,20.90
2015,01,18,05,07,22.50
2015,01,18,05,08,17.70
2015,01,18,05,09,20.90
2015,01,18,05,10,12.90
2015,01,18,05,11,24.20
2015,01,18,05,12,8.10
2015,01,18,05,13,19.30
2015,01,18,05,14,22.50
2015,01,18,05,15,9.60
2015,01,18,05,16,20.90
2015,01,18,05,17,9.60
2015,01,18,05,18,22.50
2015,01,18,05,19,19.30
2015,01,18,05,20,19.30
2015,01,18,05,21,16.10
2015,01,18,05,22,11.30
2015,01,18,05,23,9.60
2015,01,18,05,24,14.50
2015,01,18,05,25,9.60
2015,01,18,05,26,22.50
2015,01,18,05,27,16.10
2015,01,18,05,28,25.70
2015,01,18,05,29,19.30
2015,01,18,05,30,20.90
2015,01,18,05,31,24.20
2015,01,18,05,32,20.90
2015,01,18,05,33,17.70
2015,01,18,05,34,16.10
2015,01,18,05,35,17.70
2015,01,18,05,36,8.10
2015,01,18,05,37,14.50
2015,01,18,05,38,25.70
2015,01,18,05,39,20.90
2015,01,18,05,40,17.70
2015,01,18,05,41,16.10
2015,01,18,05,42,20.90
2015,01,18,05,43,19.30
2015,01,18,05,44,20.90
2015,01,18,05,45,16.10
2015,01,18,05,46,20.90
2015,01,18,05,47,24.20
2015,01,18,05,48,14.50
2015,01,18,05,49,19.30
2015,01,18,05,50,14.50
2015,01,18,05,51,19.30
2015,01,18,05,52,19.30
2015,01,18,05,53,25.70
2015,01,18,05,54,17.70
2015,01,18,05,55,19.30
2015,01,18,05,56,22.50
2015,01,18,05,57,24.20
2015,01,18,05,58,32.20
2015,01,18,05,59,22.50
2015,01,18,06,00,27.40
2015,01,18,06,01,22.50
2015,01,18,06,02,16.10
2015,01,18,06,03,19.30
2015,01,18,06,04,20.90
2015,01,18,06,05,17.70
2015,01,18,06,06,12.90
2015,01,18,06,07,40.20
2015,01,18,06,08,29.00
2015,01,18,06,09,29.00
2015,01,18,06,10,29.00
2015,01,18,06,11,33.80
2015,01,18,06,12,33.80
2015,01,18,06,13,29.00
2015,01,18,06,14,27.40
2015,01,18,06,15,33.80
2015,01,18,06,16,30.60
2015,01,18,06,17,32.20
2015,01,18,06,18,22.50
2015,01,18,06,19,29.00
2015,01,18,06,20,20.90
2015,01,18,06,21,19.30
2015,01,18,06,22,25.70
2015,01,18,06,23,30.60
2015,01,18,06,24,22.50
2015,01,18,06,25,48.30
2015,01,18,06,26,37.00
2015,01,18,06,27,45.10
2015,01,18,06,28,25.70
2015,01,18,06,29,27.40
2015,01,18,06,30,20.90
2015,01,18,06,31,24.20
2015,01,18,06,32,30.60
2015,01,18,06,33,30.60
2015,01,18,06,34,24.20
2015,01,18,06,35,27.40
2015,01,18,06,36,22.50
2015,01,18,06,37,25.70
2015,01,18,06,38,22.50
2015,01,18,06,39,40.20
2015,01,18,06,40,29.00
2015,01,18,06,41,25.70
2015,01,18,06,42,17.70
2015,01,18,06,43,24.20
2015,01,18,06,44,25.70
2015,01,18,06,45,20.90
2015,01,18,06,46,20.90
2015,01,18,06,47,22.50
2015,01,18,06,48,27.40
2015,01,18,06,49,29.00
2015,01,18,06,50,25.70
2015,01,18,06,51,25.70
2015,01,18,06,52,29.00
2015,01,18,06,53,20.90
2015,01,18,06,54,22.50
2015,01,18,06,55,20.90
2015,01,18,06,56,22.50
2015,01,18,06,57,33.80
2015,01,18,06,58,19.30
2015,01,18,06,59,19.30
2015,01,18,07,00,19.30
2015,01,18,07,01,25.70
2015,01,18,07,02,24.20
2015,01,18,07,03,20.90
2015,01,18,07,04,19.30
2015,01,18,07,05,25.70
2015,01,18,07,06,20.90
2015,01,18,07,07,27.40
2015,01,18,07,08,27.40
2015,01,18,07,09,24.20
2015,01,18,07,10,29.00
2015,01,18,07,11,27.40
2015,01,18,07,12,27.40
2015,01,18,07,13,20.90
2015,01,18,07,14,30.60
2015,01,18,07,15,33.80
2015,01,18,07,16,24.20
2015,01,18,07,17,17.70
2015,01,18,07,18,17.70
2015,01,18,07,19,24.20
2015,01,18,07,20,24.20
2015,01,18,07,21,32.20
2015,01,18,07,22,30.60
2015,01,18,07,23,30.60
2015,01,18,07,24,35.40
2015,01,18,07,25,43.50
2015,01,18,07,26,33.80
2015,01,18,07,27,32.20
2015,01,18,07,28,30.60
2015,01,18,07,29,33.80
2015,01,18,07,30,45.10
2015,01,18,07,31,46.70
2015,01,18,07,32,45.10
2015,01,18,07,33,40.20
2015,01,18,07,34,33.80
2015,01,18,07,35,32.20
2015,01,18,07,36,35.40
2015,01,18,07,37,51.50
2015,01,18,07,38,32.20
2015,01,18,07,39,30.60
2015,01,18,07,40,35.40
2015,01,18,07,41,38.60
2015,01,18,07,42,41.80
2015,01,18,07,43,37.00
2015,01,18,07,44,33.80
2015,01,18,07,45,38.60
2015,01,18,07,46,40.20
2015,01,18,07,47,38.60
2015,01,18,07,48,40.20
2015,01,18,07,49,37.00
2015,01,18,07,50,53.10
2015,01,18,07,51,48.30
2015,01,18,07,52,45.10
2015,01,18,07,53,40.20
2015,01,18,07,54,49.90
2015,01,18,07,55,40.20
2015,01,18,07,56,29.00
2015,01,18,07,57,32.20
2015,01,18,07,58,27.40
2015,01,18,07,59,32.20
2015,01,18,08,00,22.50
2015,01,18,08,01,27.40
2015,01,18,08,02,27.40
2015,01,18,08,03,30.60
2015,01,18,08,04,32.20
2015,01,18,08,05,59.50
2015,01,18,08,06,33.80
2015,01,18,08,07,27.40
2015,01,18,08,08,25.70
2015,01,18,08,09,41.80
2015,01,18,08,10,53.10
2015,01,18,08,11,33.80
2015,01,18,08,12,40.20
2015,01,18,08,13,37.00
2015,01,18,08,14,24.20
2015,01,18,08,15,25.70
2015,01,18,08,16,30.60
2015,01,18,08,17,51.50
2015,01,18,08,18,33.80
2015,01,18,08,19,29.00
2015,01,18,08,20,22.50
2015,01,18,08,21,29.00
2015,01,18,08,22,25.70
2015,01,18,08,23,29.00
2015,01,18,08,24,38.60
2015,01,18,08,25,29.00
2015,01,18,08,26,32.20
2015,01,18,08,27,30.60
2015,01,18,08,28,32.20
2015,01,18,08,29,24.20
2015,01,18,08,30,30.60
2015,01,18,08,31,32.20
2015,01,18,08,32,27.40
2015,01,18,08,33,29.00
2015,01,18,08,34,35.40
2015,01,18,08,35,51.50
2015,01,18,08,36,33.80
2015,01,18,08,37,27.40
2015,01,18,08,38,32.20
2015,01,18,08,39,32.20
2015,01,18,08,40,33.80
2015,01,18,08,41,30.60
2015,01,18,08,42,38.60
2015,01,18,08,43,40.20
2015,01,18,08,44,38.60
2015,01,18,08,45,27.40
2015,01,18,08,46,40.20
2015,01,18,08,47,45.10
2015,01,18,08,48,32.20
2015,01,18,08,49,29.00
2015,01,18,08,50,35.40
2015,01,18,08,51,40.20
2015,01,18,08,52,33.80
2015,01,18,08,53,25.70
2015,01,18,08,54,37.00
2015,01,18,08,55,33.80
2015,01,18,08,56,38.60
2015,01,18,08,57,33.80
2015,01,18,08,58,40.20
2015,01,18,08,59,53.10
2015,01,18,09,00,40.20
2015,01,18,09,01,43.50
2015,01,18,09,02,33.80
2015,01,18,09,05,25.70
2015,01,18,09,06,45.10
2015,01,18,09,07,30.60
2015,01,18,09,08,29.00
2015,01,18,09,09,33.80
2015,01,18,09,10,41.80
2015,01,18,09,11,29.00
2015,01,18,09,12,29.00
2015,01,18,09,13,30.60
2015,01,18,09,14,33.80
2015,01,18,09,15,37.00
2015,01,18,09,16,27.40
2015,01,18,09,17,27.40
2015,01,18,09,18,30.60
2015,01,18,09,19,29.00
2015,01,18,09,20,27.40
2015,01,18,09,21,24.20
2015,01,18,09,22,17.70
2015,01,18,09,23,27.40
2015,01,18,09,24,22.50
2015,01,18,09,25,22.50
2015,01,18,09,26,25.70
2015,01,18,09,27,30.60
2015,01,18,09,28,25.70
2015,01,18,09,29,25.70
2015,01,18,09,30,16.10
2015,01,18,09,31,19.30
2015,01,18,09,32,20.90
2015,01,18,09,33,25.70
2015,01,18,09,34,19.30
2015,01,18,09,35,17.70
2015,01,18,09,36,37.00
2015,01,18,09,37,24.20
2015,01,18,09,38,19.30
2015,01,18,09,39,24.20
2015,01,18,09,40,19.30
2015,01,18,09,41,35.40
2015,01,18,09,42,24.20
2015,01,18,09,43,19.30
2015,01,18,09,44,11.30
2015,01,18,09,45,25.70
2015,01,18,09,46,25.70
2015,01,18,09,47,37.00
2015,01,18,09,48,43.50
2015,01,18,09,49,24.20
2015,01,18,09,50,22.50
2015,01,18,09,51,20.90
2015,01,18,09,52,14.50
2015,01,18,09,53,16.10
2015,01,18,09,54,14.50
2015,01,18,09,55,6.40
2015,01,18,09,56,16.10
2015,01,18,09,57,11.30
2015,01,18,09,58,11.30
2015,01,18,09,59,12.90
2015,01,18,10,00,19.30
2015,01,18,10,01,14.50
2015,01,18,10,02,12.90
2015,01,18,10,03,8.10
2015,01,18,10,04,6.40
2015,01,18,10,05,9.60
2015,01,18,10,08,9.60
2015,01,18,10,09,16.10
2015,01,18,10,10,11.30
2015,01,18,10,11,8.10
2015,01,18,10,12,9.60
2015,01,18,10,13,11.30
2015,01,18,10,14,6.40
2015,01,18,10,15,11.30
2015,01,18,10,16,6.40
2015,01,18,10,17,17.70
2015,01,18,10,18,9.60
2015,01,18,10,19,8.10
2015,01,18,10,20,6.40
2015,01,18,10,21,8.10
2015,01,18,10,22,11.30
2015,01,18,10,23,4.80
2015,01,18,10,24,4.80
2015,01,18,10,25,6.40
2015,01,18,10,26,8.10
2015,01,18,10,27,6.40
2015,01,18,10,28,4.80
2015,01,18,10,29,3.20
2015,01,18,10,30,4.80
2015,01,18,10,31,1.60
2015,01,18,10,32,14.50
2015,01,18,10,33,19.30
2015,01,18,10,34,16.10
2015,01,18,10,35,22.50
2015,01,18,10,36,14.50
2015,01,18,10,37,9.60
2015,01,18,10,38,3.20
2015,01,18,10,39,8.10
2015,01,18,10,40,6.40
2015,01,18,10,41,8.10
2015,01,18,10,42,3.20
2015,01,18,10,44,1.60
2015,01,18,10,46,1.60
2015,01,18,10,47,1.60
2015,01,18,10,48,4.80
2015,01,18,10,49,6.40
2015,01,18,10,50,9.60
2015,01,18,10,51,11.30
2015,01,18,10,52,9.60
2015,01,18,10,53,3.20
2015,01,18,10,54,6.40
2015,01,18,10,56,11.30
2015,01,18,10,57,11.30
2015,01,18,10,58,6.40
2015,01,18,10,59,4.80
2015,01,18,11,03,1.60
2015,01,18,11,04,4.80
2015,01,18,11,05,6.40
2015,01,18,11,06,6.40
2015,01,18,11,07,22.50
2015,01,18,11,08,20.90
2015,01,18,11,09,11.30
2015,01,18,11,10,14.50
2015,01,18,11,11,9.60
2015,01,18,11,12,11.30
2015,01,18,11,13,16.10
2015,01,18,11,14,12.90
2015,01,18,11,15,17.70
2015,01,18,11,16,16.10
2015,01,18,11,17,11.30
2015,01,18,11,18,9.60
2015,01,18,11,19,19.30
2015,01,18,11,20,12.90
2015,01,18,11,21,8.10
2015,01,18,11,22,8.10
2015,01,18,11,23,11.30
2015,01,18,11,24,11.30
2015,01,18,11,25,9.60
2015,01,18,11,26,8.10
2015,01,18,11,27,6.40
2015,01,18,11,28,4.80
2015,01,18,11,29,8.10
2015,01,18,11,30,9.60
2015,01,18,11,31,9.60
2015,01,18,11,32,11.30
2015,01,18,11,33,8.10
2015,01,18,11,34,8.10
2015,01,18,11,35,9.60
2015,01,18,11,36,9.60
2015,01,18,11,37,17.70
2015,01,18,11,38,11.30
2015,01,18,11,39,14.50
2015,01,18,11,40,11.30
2015,01,18,11,41,6.40
2015,01,18,11,42,8.10
2015,01,18,11,43,6.40
2015,01,18,11,44,9.60
2015,01,18,11,45,9.60
2015,01,18,11,46,11.30
2015,01,18,11,47,6.40
2015,01,18,11,48,11.30
2015,01,18,11,49,11.30
2015,01,18,11,50,11.30
2015,01,18,11,51,16.10
2015,01,18,11,52,9.60
2015,01,18,11,53,8.10
2015,01,18,11,54,8.10
2015,01,18,11,55,11.30
2015,01,18,11,56,8.10
2015,01,18,11,57,4.80
2015,01,18,11,58,4.80
2015,01,18,11,59,4.80
2015,01,18,12,00,4.80
2015,01,18,12,01,4.80
2015,01,18,12,02,8.10
2015,01,18,12,03,4.80
2015,01,18,12,04,4.80
2015,01,18,12,05,6.40
2015,01,18,12,06,8.10
2015,01,18,12,07,4.80
2015,01,18,12,08,1.60
2015,01,18,12,13,1.60
2015,01,18,12,14,3.20
2015,01,18,12,16,1.60
2015,01,18,12,17,3.20
2015,01,18,12,18,4.80
2015,01,18,12,19,6.40
2015,01,18,12,20,4.80
2015,01,18,12,21,8.10
2015,01,18,12,22,25.70
2015,01,18,12,23,11.30
2015,01,18,12,24,17.70
2015,01,18,12,25,20.90
2015,01,18,12,26,20.90
2015,01,18,12,27,22.50
2015,01,18,12,28,22.50
2015,01,18,12,29,30.60
2015,01,18,12,30,20.90
2015,01,18,12,31,17.70
2015,01,18,12,32,24.20
2015,01,18,12,33,22.50
2015,01,18,12,34,22.50
2015,01,18,12,35,17.70
2015,01,18,12,36,16.10
2015,01,18,12,37,16.10
2015,01,18,12,38,19.30
2015,01,18,12,39,16.10
2015,01,18,12,40,11.30
2015,01,18,12,41,14.50
2015,01,18,12,42,11.30
2015,01,18,12,43,6.40
2015,01,18,12,44,9.60
2015,01,18,12,45,3.20
2015,01,18,12,46,6.40
2015,01,18,12,47,16.10
2015,01,18,12,48,11.30
2015,01,18,12,49,8.10
2015,01,18,12,50,6.40
2015,01,18,12,51,4.80
2015,01,18,12,52,6.40
2015,01,18,12,53,6.40
2015,01,18,12,55,1.60
2015,01,18,12,57,1.60
2015,01,18,12,58,6.40
2015,01,18,12,59,3.20
2015,01,18,13,00,1.60
2015,01,18,13,01,1.60
2015,01,18,13,02,3.20
2015,01,18,13,03,11.30
2015,01,18,13,04,6.40
2015,01,18,13,05,6.40
2015,01,18,13,06,6.40
2015,01,18,13,07,8.10
2015,01,18,13,08,8.10
2015,01,18,13,09,4.80
2015,01,18,13,10,8.10
2015,01,18,13,11,8.10
2015,01,18,13,12,6.40
2015,01,18,13,13,8.10
2015,01,18,13,14,8.10
2015,01,18,13,15,8.10
2015,01,18,13,16,4.80
2015,01,18,13,17,8.10
2015,01,18,13,18,6.40
2015,01,18,13,19,1.60
2015,01,18,13,20,3.20
2015,01,18,13,21,4.80
2015,01,18,13,24,4.80
2015,01,18,13,25,8.10
2015,01,18,13,26,11.30
2015,01,18,13,27,9.60
2015,01,18,13,28,9.60
2015,01,18,13,29,8.10
2015,01,18,13,30,4.80
2015,01,18,13,31,3.20
2015,01,18,13,32,4.80
2015,01,18,13,33,8.10
2015,01,18,13,34,8.10
2015,01,18,13,35,12.90
2015,01,18,13,36,6.40
2015,01,18,13,37,9.60
2015,01,18,13,38,9.60
2015,01,18,13,39,30.60
2015,01,18,13,40,6.40
2015,01,18,13,41,12.90
2015,01,18,13,42,22.50
2015,01,18,13,43,16.10
2015,01,18,13,44,14.50
2015,01,18,13,45,14.50
2015,01,18,13,46,16.10
2015,01,18,13,47,9.60
2015,01,18,13,48,9.60
2015,01,18,13,49,8.10
2015,01,18,13,50,9.60
2015,01,18,13,51,6.40
2015,01,18,13,52,6.40
2015,01,18,13,53,6.40
2015,01,18,13,54,6.40
2015,01,18,13,55,9.60
2015,01,18,13,56,6.40
2015,01,18,13,57,6.40
2015,01,18,13,58,8.10
2015,01,18,13,59,9.60
2015,01,18,14,00,6.40
2015,01,18,14,01,9.60
2015,01,18,14,02,6.40
2015,01,18,14,03,8.10
2015,01,18,14,04,8.10
2015,01,18,14,05,3.20
2015,01,18,14,06,4.80
2015,01,18,14,07,6.40
2015,01,18,14,08,3.20
2015,01,18,14,09,3.20
2015,01,18,14,10,4.80
2015,01,18,14,11,3.20
2015,01,18,14,12,8.10
2015,01,18,14,13,6.40
2015,01,18,14,14,9.60
2015,01,18,14,15,11.30
2015,01,18,14,16,9.60
2015,01,18,14,17,11.30
2015,01,18,14,18,9.60
2015,01,18,14,19,4.80
2015,01,18,14,20,6.40
2015,01,18,14,21,9.60
2015,01,18,14,22,11.30
2015,01,18,14,23,27.40
2015,01,18,14,24,17.70
2015,01,18,14,25,20.90
2015,01,18,14,26,20.90
2015,01,18,14,27,11.30
2015,01,18,14,28,11.30
2015,01,18,14,29,14.50
2015,01,18,14,30,16.10
2015,01,18,14,31,8.10
2015,01,18,14,32,9.60
2015,01,18,14,33,8.10
2015,01,18,14,34,6.40
2015,01,18,14,35,6.40
2015,01,18,14,36,6.40
2015,01,18,14,37,9.60
2015,01,18,14,38,6.40
2015,01,18,14,39,8.10
2015,01,18,14,40,11.30
2015,01,18,14,41,14.50
2015,01,18,14,42,14.50
2015,01,18,14,43,6.40
2015,01,18,14,44,3.20
2015,01,18,14,45,4.80
2015,01,18,14,46,8.10
2015,01,18,14,47,6.40
2015,01,18,14,48,1.60
2015,01,18,14,54,4.80
2015,01,18,14,55,6.40
2015,01,18,15,02,1.60
2015,01,18,15,03,4.80
2015,01,18,15,04,8.10
2015,01,18,15,05,4.80
2015,01,18,15,06,6.40
2015,01,18,15,07,4.80
2015,01,18,15,08,6.40
2015,01,18,15,12,1.60
2015,01,18,15,13,1.60
2015,01,18,15,14,4.80
2015,01,18,15,15,4.80
2015,01,18,15,16,3.20
2015,01,18,15,17,14.50
2015,01,18,15,18,6.40
2015,01,18,15,19,6.40
2015,01,18,15,20,1.60
2015,01,18,15,21,1.60
2015,01,18,15,22,1.60
2015,01,18,15,23,6.40
2015,01,18,15,24,9.60
2015,01,18,15,25,3.20
2015,01,18,15,26,4.80
2015,01,18,15,27,9.60
2015,01,18,15,28,6.40
2015,01,18,15,29,6.40
2015,01,18,15,30,4.80
2015,01,18,15,31,6.40
2015,01,18,15,32,4.80
2015,01,18,15,33,4.80
2015,01,18,15,34,4.80
2015,01,18,15,35,6.40
2015,01,18,15,36,4.80
2015,01,18,15,37,8.10
2015,01,18,15,38,16.10
2015,01,18,15,39,11.30
2015,01,18,15,40,32.20
2015,01,18,15,41,22.50
2015,01,18,15,42,16.10
2015,01,18,15,43,22.50
2015,01,18,15,44,14.50
2015,01,18,15,45,17.70
2015,01,18,15,46,17.70
2015,01,18,15,47,20.90
2015,01,18,15,48,24.20
2015,01,18,15,49,16.10
2015,01,18,15,50,17.70
2015,01,18,15,51,9.60
2015,01,18,15,52,25.70
2015,01,18,15,53,11.30
2015,01,18,15,54,11.30
2015,01,18,15,55,9.60
2015,01,18,15,56,6.40
2015,01,18,15,57,8.10
2015,01,18,15,58,6.40
2015,01,18,15,59,11.30
2015,01,18,16,00,9.60
2015,01,18,16,01,11.30
2015,01,18,16,02,11.30
2015,01,18,16,03,8.10
2015,01,18,16,04,8.10
2015,01,18,16,05,8.10
2015,01,18,16,06,6.40
2015,01,18,16,07,6.40
2015,01,18,16,08,4.80
2015,01,18,16,09,3.20
2015,01,18,16,10,3.20
2015,01,18,16,11,4.80
2015,01,18,16,12,4.80
2015,01,18,16,13,4.80
2015,01,18,16,14,6.40
2015,01,18,16,15,8.10
2015,01,18,16,16,6.40
2015,01,18,16,17,14.50
2015,01,18,16,18,8.10
2015,01,18,16,19,4.80
2015,01,18,16,20,3.20
2015,01,18,16,21,6.40
2015,01,18,16,23,4.80
2015,01,18,16,27,3.20
2015,01,18,16,28,1.60
2015,01,18,16,29,1.60
2015,01,18,16,36,1.60
2015,01,18,16,37,1.60
2015,01,18,16,40,1.60
2015,01,18,16,41,8.10
2015,01,18,16,42,3.20
2015,01,18,16,47,1.60
2015,01,18,16,51,1.60
2015,01,18,16,55,3.20
2015,01,18,16,56,4.80
2015,01,18,17,01,8.10
2015,01,18,17,02,8.10
2015,01,18,17,03,8.10
2015,01,18,17,04,8.10
2015,01,18,17,05,8.10
2015,01,18,17,06,8.10
2015,01,18,17,07,11.30
2015,01,18,17,08,4.80
2015,01,18,17,09,9.60
2015,01,18,17,10,6.40
2015,01,18,17,11,6.40
2015,01,18,17,12,6.40
2015,01,18,17,13,6.40
2015,01,18,17,14,8.10
2015,01,18,17,15,6.40
2015,01,18,17,16,1.60
2015,01,18,17,22,1.60
2015,01,18,17,25,1.60
2015,01,18,17,26,3.20
2015,01,18,17,30,1.60
2015,01,18,17,33,1.60
2015,01,18,17,34,4.80
2015,01,18,17,35,3.20
2015,01,18,17,36,3.20
2015,01,18,17,37,3.20
2015,01,18,17,43,1.60
2015,01,18,17,44,3.20
2015,01,18,17,46,3.20
2015,01,18,17,47,3.20
2015,01,18,17,51,1.60
2015,01,18,18,04,1.60
2015,01,18,18,15,1.60
2015,01,18,18,17,4.80
2015,01,18,18,18,1.60
2015,01,18,18,19,4.80
2015,01,18,18,20,4.80
2015,01,18,18,21,3.20
2015,01,18,18,22,4.80
2015,01,18,18,26,1.60
2015,01,18,18,33,4.80
2015,01,18,18,34,4.80
2015,01,18,18,35,6.40
2015,01,18,18,36,8.10
2015,01,18,18,37,4.80
2015,01,18,18,38,3.20
2015,01,18,18,39,3.20
2015,01,18,18,40,3.20
2015,01,18,18,43,1.60
2015,01,18,18,44,4.80
2015,01,18,19,05,1.60
2015,01,18,19,11,1.60
2015,01,18,19,12,1.60
2015,01,18,19,19,3.20
2015,01,18,19,20,4.80
2015,01,18,19,28,1.60
2015,01,18,19,35,1.60
2015,01,18,19,53,3.20
2015,01,18,19,54,1.60
2015,01,18,20,00,1.60
2015,01,18,20,12,1.60
2015,01,18,20,21,1.60
2015,01,18,20,40,4.80
2015,01,18,20,41,3.20
2015,01,18,20,42,3.20
2015,01,18,20,44,1.60
2015,01,18,21,09,1.60
2015,01,18,21,10,6.40
2015,01,18,21,11,3.20
2015,01,18,21,12,1.60
2015,01,18,21,42,6.40
2015,01,18,21,44,3.20
2015,01,18,21,45,1.60
2015,01,18,21,46,1.60
2015,01,18,21,55,1.60
2015,01,18,21,57,3.20
2015,01,18,21,58,1.60
2015,01,18,21,59,1.60
2015,01,18,22,00,4.80
2015,01,18,22,01,3.20
2015,01,18,22,45,1.60
2015,01,18,22,48,1.60
2015,01,18,22,49,1.60
2015,01,18,22,54,1.60
2015,01,18,22,55,1.60
2015,01,18,22,57,3.20
2015,01,18,22,58,1.60
2015,01,18,22,59,3.20
2015,01,18,23,00,3.20
2015,01,18,23,01,3.20
2015,01,18,23,02,3.20
2015,01,18,23,03,3.20
2015,01,18,23,04,1.60
2015,01,18,23,05,4.80
2015,01,18,23,06,6.40
2015,01,18,23,07,3.20
2015,01,18,23,08,4.80
2015,01,18,23,09,1.60
2015,01,18,23,10,1.60
2015,01,18,23,11,1.60
2015,01,18,23,12,1.60
2015,01,18,23,13,1.60
2015,01,18,23,14,3.20
2015,01,18,23,15,6.40
2015,01,18,23,16,4.80
2015,01,18,23,17,4.80
2015,01,18,23,18,6.40
2015,01,18,23,19,4.80
2015,01,18,23,20,8.10
2015,01,18,23,21,8.10
2015,01,18,23,22,3.20
2015,01,18,23,23,3.20
2015,01,18,23,24,1.60
2015,01,18,23,26,3.20
2015,01,18,23,27,1.60
2015,01,18,23,28,3.20
2015,01,18,23,30,1.60
2015,01,18,23,31,4.80
2015,01,18,23,32,1.60
2015,01,18,23,33,1.60
2015,01,18,23,34,4.80
2015,01,18,23,35,1.60
2015,01,18,23,36,3.20
2015,01,18,23,37,4.80
2015,01,18,23,38,4.80
2015,01,18,23,39,1.60
2015,01,18,23,46,4.80
2015,01,18,23,47,3.20
2015,01,18,23,48,1.60
2015,01,18,23,59,1.60
